Regional Weather Roundup
Issued by NWS

Home | Current Version | Previous Version | Graphics & Text | Print | Product List | Glossary Off
Versions: 1 2 3 4 5 6 7 8 9 10 11 12 13 14 15 16 17 18 19 20 21 22 23 24 25 26 27 28 29 30 31 32 33 34 35 36 37 38 39 40 41 42 43 44 45 46 47 48 49 50

000
ASUS43 KTOP 252108
RWRKS

WEATHER ROUNDUP FOR KANSAS
NATIONAL WEATHER SERVICE GOODLAND KS
300 PM CST SAT FEB 25 2017

NOTE:  "FAIR" INDICATES FEW OR NO CLOUDS BELOW 12,000 FEET WITH NO
SIGNIFICANT WEATHER AND/OR OBSTRUCTIONS TO VISIBILITY.

KSZ001>006-013>018-027>032-041>047-252200-
NORTHWEST KANSAS

CITY           SKY/WX    TMP DP  RH WIND       PRES   REMARKS
GOODLAND       SUNNY     40   7  25 NW10G23   29.91F WCI  33
HAYS           MOSUNNY   46  18  32 SW20G25   29.98F
HILL CITY      PTSUNNY   48  18  30 W13G21    29.94F
RUSSELL        MOSUNNY   45  19  35 SW12G21   29.98F
$$

KSZ061>065-074>080-084>089-252200-
SOUTHWEST KANSAS

CITY           SKY/WX    TMP DP  RH WIND       PRES   REMARKS
DODGE CITY     SUNNY     46  13  26 SW16G25   29.98F
ELKHART          N/A     47  12  24 W13         N/A
GARDEN CITY    PTSUNNY   48  13  24 SW17G24   29.92F
GREAT BEND     CLOUDY    45  17  32 S14G20    30.01F
LIBERAL        MOSUNNY   48  18  29 SW18G28   29.96F
PRATT          SUNNY     42   8  24 S15G23    30.03F
$$

KSZ066>073-081>083-090>101-252200-
SOUTHEAST KANSAS

CITY           SKY/WX    TMP DP  RH WIND       PRES   REMARKS
CHANUTE        SUNNY     46  10  23 W7        30.12F
COFFEYVILLE    SUNNY     45  10  24 CALM      30.14F
HUTCHINSON     CLOUDY    45  10  24 S14G23    30.06F
MEDICINE LODGE   N/A     44   9  23 S12       30.05F
NEWTON         MOSUNNY   43  12  28 SW15      30.08F
PARSONS        SUNNY     46  10  23 W6        30.14F
WICHITA INTL   MOSUNNY   44  15  31 SW13G20   30.09F
WICHITA JABRA  SUNNY     43  15  32 SW12G21   30.09F
WICHITA MCCONL SUNNY     44  13  29 W12       30.08F
WINFIELD       SUNNY     44  12  27 SW10      30.13F
$$

KSZ007>012-019>026-033>040-048>060-102>105-252200-
NORTHEAST KANSAS

CITY           SKY/WX    TMP DP  RH WIND       PRES   REMARKS
CONCORDIA      MOSUNNY   43  14  31 SW17      30.01F
EMPORIA        SUNNY     44   8  23 S12       30.09F
LAWRENCE       SUNNY     42  10  27 W7        30.11F
MANHATTAN      SUNNY     43  13  29 SW12      30.07F
MARYSVILLE     CLOUDY    37  19  48 S12G17    30.05F WCI  30
OLATHE IND     SUNNY     41  10  28 SW5       30.11F
OLATHE EXE     SUNNY     40  13  33 W8        30.10F
SALINA         SUNNY     47   9  21 S14G23    30.05F
TOPEKA BILLARD SUNNY     42  10  27 S5        30.10F
TOPEKA FORBES  SUNNY     43   9  24 NW7       30.09F
$$




USA.gov is the U.S. government's official web portal to all federal, state and local government web resources and services.